SCP
2 2 1 1 0 0 0 0 0 0 0 0 0 0 0 0 0 0 0 0 0 0 0 0 0 0 0 0 0 0 0 0 0 0 0 0 0 0 0 0 0 0 0
2 2 2 1 0 0 0 0 0 0 0 0 0 0 0 0 0 0 0 0 0 0 0 0 0 0 0 0 0 0 0 0 0 0 0 0 0 0 0 0 0 0 0
1 1 2 2 0 0 0 0 0 0 0 0 0 0 0 0 0 0 0 0 0 0 0 0 0 0 0 0 0 0 0 0 0 0 0 0 0 0 0 0 0 0 0
1 2 1 2 0 0 0 0 0 0 0 0 0 0 0 0 0 0 0 0 0 0 0 0 0 0 0 0 0 0 0 0 0 0 0 0 0 0 0 0 0 0 0
1 1 1 1 1 0 0 0 0 0 0 0 0 0 0 0 0 0 0 0 0 0 0 0 0 0 0 0 0 0 0 0 0 0 0 0 0 0 0 0 0 0 0
0 1 1 1 1 0 0 0 0 0 0 0 0 0 0 0 0 0 0 0 0 0 0 0 0 0 0 0 0 0 0 0 0 0 0 0 0 0 0 0 0 0 0
0 0 1 0 1 0 0 0 0 0 0 0 0 0 0 0 0 0 0 0 0 0 0 0 0 0 0 0 0 0 0 0 0 0 0 0 0 0 0 0 0 0 0
1 0 0 0 0 0 0 0 0 0 0 0 0 0 0 0 0 0 0 0 0 0 0 0 0 0 0 0 0 0 0 0 0 0 0 0 0 0 0 0 0 0 0
0 0 0 0 0 0 0 0 0 0 0 0 0 0 0 0 0 0 0 0 0 0 0 0 0 0 0 0 0 0 0 0 0 0 0 0 0 0 0 0 0 0 0
0 0 0 0 0 0 0 0 0 0 0 0 0 0 0 0 0 0 0 0 0 0 0 0 0 0 0 0 0 0 0 0 0 0 0 0 0 0 0 0 0 0 0
-0 0 0 0 0 0 0 0 0 0 0 0 0 0 0 0 0 0 0 0 0 0 0 0 0 0 0 0 0 0 0 0 0 0 0 0 0 0 0 0 0 0 0
-0 -0 0 0 0 0 0 0 0 0 0 0 0 0 0 0 0 0 0 0 0 0 0 0 0 0 0 0 0 0 0 0 0 0 0 0 0 0 0 0 0 0 0
-0 -0 0 0 0 0 0 0 0 0 0 0 0 0 0 0 0 0 0 0 0 0 0 0 0 0 0 0 0 0 0 0 0 0 0 0 0 0 0 0 0 0 0
-0 -0 -0 0 0 0 0 0 0 0 0 0 0 0 0 0 0 0 0 0 0 0 0 0 0 0 0 0 0 0 0 0 0 0 0 0 0 0 0 0 0 0 0
-0 -0 -0 -0 0 0 0 0 0 0 0 0 0 0 0 0 0 0 0 0 0 0 0 0 0 0 0 0 0 0 0 0 0 0 0 0 0 0 0 0 0 0 0
-0 -0 -0 -0 0 0 0 0 0 0 0 0 0 0 0 0 0 0 0 0 0 0 0 0 0 0 0 0 0 0 0 0 0 0 0 0 0 0 0 0 0 0 0
-0 -0 -0 -0 -0 0 0 0 0 0 0 0 0 0 0 0 0 0 0 0 0 0 0 0 0 0 0 0 0 0 0 0 0 0 0 0 0 0 0 0 0 0 0
-0 -0 -0 -0 -0 -0 0 0 0 0 0 0 0 0 0 0 0 0 0 0 0 0 0 0 0 0 0 0 0 0 0 0 0 0 0 0 0 0 0 0 0 0 0
0 -0 -0 -0 -0 -0 0 0 0 0 0 0 0 0 0 0 0 0 0 0 0 0 0 0 0 0 0 0 0 0 0 0 0 0 0 0 0 0 0 0 0 0 0
0 -0 -0 -0 -0 -0 -0 0 0 0 0 0 0 0 0 0 0 0 0 0 0 0 0 0 0 0 0 0 0 0 0 0 0 0 0 0 0 0 0 0 0 0 0
-0 0 -0 0 -0 -0 -0 0 0 0 0 0 0 0 0 0 0 0 0 0 0 0 0 0 0 0 0 0 0 0 0 0 0 0 0 0 0 0 0 0 0 0 0
-0 -0 0 0 0 -0 0 0 0 0 0 0 0 0 0 0 0 0 0 0 0 0 0 0 0 0 0 0 0 0 0 0 0 0 0 0 0 0 0 0 0 0 0
-0 -0 -0 0 0 0 0 0 0 0 0 0 0 0 0 0 0 0 0 0 0 0 0 0 0 0 0 0 0 0 0 0 0 0 0 0 0 0 0 0 0 0 0
-0 -0 -0 -0 -0 0 0 0 0 0 0 0 0 0 0 0 0 0 0 0 0 0 0 0 0 0 0 0 0 0 0 0 0 0 0 0 0 0 0 0 0 0 0
0 0 -0 -0 0 0 0 0 0 0 0 0 0 0 0 0 0 0 0 0 0 0 0 0 0 0 0 0 0 0 0 0 0 0 0 0 0 0 0 0 0 0 0
0 0 0 0 0 0 0 0 0 0 0 0 0 0 0 0 0 0 0 0 0 0 0 0 0 0 0 0 0 0 0 0 0 0 0 0 0 0 0 0 0 0 0
Wind_Speed_500mb
68 62 55 58 56 52 53 52 46 63 33 50 71 67 66 64 59 49 51 55 48 59 52 49 45 44 37 43 47 45 47 45 43 40 38 38 34 34 35 35 32 30 29
71 66 62 62 60 55 54 58 74 66 67 33 32 44 49 60 59 49 52 53 48 50 45 41 37 38 49 51 52 50 48 46 44 39 43 40 36 34 32 30 29 28 30
72 63 68 66 68 61 62 67 65 62 58 69 54 53 51 50 52 48 46 52 50 45 38 40 52 52 50 50 52 50 45 43 42 42 38 38 35 32 31 30 30 31 31
73 69 71 70 66 65 67 63 64 65 67 74 73 74 63 58 57 53 47 44 48 44 45 54 51 51 55 52 48 46 44 42 41 40 38 36 33 32 34 36 36 36 34
83 74 75 73 68 73 72 72 74 69 79 76 83 64 60 63 61 61 69 58 49 48 53 53 49 48 49 48 45 46 44 40 41 40 37 36 37 39 41 41 39 38 37
85 83 78 80 77 79 81 81 75 80 83 84 79 80 63 66 66 59 55 65 61 57 54 54 57 50 52 49 45 44 42 40 39 38 39 41 43 42 40 39 37 34 31
91 82 93 89 83 91 84 86 80 87 89 92 92 80 68 66 64 61 62 66 65 66 64 66 63 58 52 49 44 41 43 43 40 41 42 42 40 38 36 34 32 29 26
86 103 93 92 92 92 89 93 95 97 97 108 102 90 67 73 72 69 69 69 71 73 76 73 67 63 57 50 47 44 46 42 42 41 42 41 38 35 31 28 24 18 11
87 87 100 106 103 101 99 97 106 109 104 103 99 105 60 48 85 81 82 78 74 68 79 72 67 61 56 59 55 48 41 40 39 38 38 36 33 30 24 16 15 19 19
90 84 94 94 115 113 108 111 113 116 119 112 87 77 73 73 88 53 80 82 81 79 74 71 68 64 58 63 57 56 52 44 40 31 30 28 26 26 26 27 24 23 21
85 78 101 101 96 121 121 117 114 125 122 117 93 82 73 56 75 67 62 73 93 86 78 73 72 67 66 67 62 58 54 50 41 46 38 31 30 32 32 29 27 23 20
76 87 79 91 100 120 106 112 114 122 121 121 113 97 83 82 91 81 65 77 86 85 82 75 75 73 71 72 67 60 53 53 52 46 38 32 30 30 30 30 28 27 27
64 61 63 80 103 96 116 106 111 121 122 115 124 113 95 86 89 94 84 85 80 85 85 85 81 78 78 77 70 64 61 57 58 47 40 36 34 34 34 33 33 33 29
71 66 60 68 101 110 99 117 115 119 127 122 126 124 116 92 83 99 102 101 69 83 80 80 83 82 79 77 71 68 67 60 55 52 46 44 42 42 40 39 37 32 31
71 77 58 83 52 103 120 114 124 125 127 135 126 128 112 101 97 86 91 109 106 61 76 76 75 82 76 74 72 67 64 62 60 55 52 52 49 45 43 42 37 39 37
79 67 72 71 89 82 120 138 118 127 130 125 138 123 116 109 102 92 84 106 105 85 82 82 90 90 85 76 67 66 65 62 62 59 57 51 47 45 45 44 45 42 38
72 63 62 65 58 54 122 119 134 126 133 127 130 129 123 109 114 103 98 97 100 89 75 79 93 90 86 78 70 71 67 67 65 59 55 50 51 50 51 49 47 43 41
67 71 63 63 64 81 72 125 125 124 126 132 127 134 124 122 112 114 118 104 91 84 84 93 101 97 95 82 77 73 73 66 62 60 55 55 55 55 52 51 47 44 43
57 72 68 69 58 73 60 124 118 121 126 127 132 136 128 125 118 114 113 114 99 86 82 89 86 89 95 85 84 76 72 66 64 61 60 58 56 55 54 50 48 47 46
40 56 71 73 61 63 84 103 123 127 127 128 125 136 124 138 132 116 110 112 105 95 92 86 79 82 88 90 86 88 79 75 72 69 66 63 61 59 55 53 51 50 51
71 54 69 75 71 64 91 95 133 135 130 128 138 138 132 138 136 124 111 112 111 103 100 92 83 89 94 96 98 93 89 84 75 74 74 70 69 66 64 60 57 58 56
108 88 82 95 85 68 84 85 131 136 132 135 139 142 139 136 126 115 115 114 117 118 105 107 99 98 96 95 102 99 98 90 83 83 80 76 72 70 67 64 65 62 59
89 102 97 97 98 75 89 86 124 133 136 135 137 142 136 126 119 109 107 111 114 121 120 103 108 106 102 96 98 105 101 98 99 96 90 84 81 76 70 67 68 66 65
73 69 72 92 85 74 78 93 138 131 128 134 133 132 133 135 121 114 111 111 113 115 121 118 97 97 101 105 101 95 96 106 100 85 94 94 90 83 77 74 72 70 69
61 51 63 82 75 73 74 103 138 131 127 127 133 128 134 146 134 132 119 117 114 114 99 107 105 88 94 97 100 102 94 98 98 94 90 95 91 88 87 81 78 75 72
56 63 68 68 68 62 66 108 123 132 130 121 126 118 136 136 127 129 129 116 112 108 109 112 109 100 93 96 96 92 97 102 110 87 102 99 93 98 79 88 84 82 80
Wind_Direction_500mb
237 235 232 228 232 229 224 212 189 182 154 162 171 179 182 188 183 184 184 184 190 175 178 184 193 200 206 178 159 160 160 161 168 161 153 141 139 131 124 125 125 120 116
235 231 229 229 229 230 228 215 216 227 240 238 234 202 191 192 188 178 180 177 181 175 175 176 187 171 163 161 162 161 162 156 157 148 140 140 137 137 136 130 124 117 113
234 228 232 229 231 224 223 222 223 231 235 218 210 194 189 186 190 188 182 182 176 178 181 181 166 161 160 164 166 168 165 161 155 156 152 150 148 141 134 129 125 120 114
237 227 232 228 230 220 217 220 208 195 188 179 186 188 190 188 192 197 195 185 185 178 175 169 165 165 162 169 166 161 159 155 157 158 156 151 145 138 133 129 125 121 116
242 232 232 226 221 212 205 206 192 190 187 188 190 181 193 188 187 198 198 197 191 181 173 168 172 170 168 165 161 159 158 158 157 159 157 151 144 136 131 127 124 119 114
246 237 226 227 219 212 207 207 207 202 195 189 185 188 197 193 190 193 192 196 204 196 179 177 173 173 171 167 170 162 157 158 159 158 155 148 141 136 133 130 126 120 115
246 230 233 225 220 216 210 208 201 197 196 186 177 173 184 195 195 193 193 203 202 186 179 176 170 174 176 176 170 163 157 156 155 155 153 149 145 141 139 133 127 122 117
247 245 236 229 225 219 209 209 202 195 191 192 180 173 171 183 195 198 198 196 192 185 180 180 178 183 179 174 165 163 155 156 155 157 158 153 151 149 145 138 130 128 146
252 246 235 234 229 225 214 210 204 197 190 193 192 179 169 187 186 194 198 198 199 189 179 177 179 182 184 170 166 167 161 159 159 161 164 163 160 156 157 171 171 154 163
293 253 239 233 220 232 217 207 205 201 198 194 193 189 182 183 174 179 187 187 187 186 182 181 183 186 188 179 176 182 179 182 173 178 181 178 181 181 181 181 184 182 185
279 314 234 227 232 219 221 207 207 202 204 199 194 186 189 186 184 183 184 184 184 183 190 187 190 192 196 191 190 188 194 188 194 190 185 196 193 189 193 198 200 203 216
277 282 239 230 227 218 215 208 209 207 205 205 193 187 191 187 185 184 184 184 177 181 184 190 192 193 197 199 200 200 199 207 207 201 205 214 216 214 214 217 217 214 217
296 286 292 239 225 227 215 215 208 205 204 198 196 190 198 198 201 196 190 187 180 176 183 191 195 197 200 206 207 206 204 208 208 213 221 228 231 227 221 221 216 216 217
302 275 283 301 220 214 226 208 210 209 202 200 202 204 201 197 201 201 200 194 181 181 187 190 196 200 204 208 210 213 217 219 221 223 224 229 228 224 218 216 217 215 202
305 288 275 257 310 225 210 207 208 205 200 201 200 199 202 204 198 195 201 204 198 184 191 195 201 205 209 211 214 216 220 221 224 223 223 224 223 219 213 212 204 195 192
293 291 284 271 256 225 206 207 200 200 197 197 202 206 207 208 200 200 195 202 206 199 200 206 208 209 209 213 214 219 220 218 219 216 218 216 214 212 208 197 194 194 195
283 283 295 286 253 295 206 200 202 201 203 199 202 200 209 217 208 208 211 216 208 204 200 203 213 211 213 215 213 217 216 214 212 210 209 208 208 203 197 197 198 195 199
274 286 290 301 264 252 251 210 198 206 205 198 203 205 208 214 213 204 209 213 213 211 207 207 213 214 216 212 215 213 212 209 207 204 203 204 200 197 201 201 201 204 209
282 277 283 292 274 242 281 204 212 210 208 206 205 206 204 208 215 215 214 215 215 213 213 216 214 208 207 205 204 207 208 206 205 203 200 198 201 202 204 207 210 210 204
279 275 276 286 286 261 239 209 203 208 211 208 211 208 205 202 214 215 215 216 214 212 211 215 218 207 203 200 200 200 198 202 200 199 199 201 202 204 206 210 212 209 203
257 267 279 284 287 270 229 216 205 203 210 205 207 207 208 205 215 218 216 214 211 211 212 212 212 204 197 196 198 200 202 197 197 203 201 204 204 205 207 208 207 207 205
254 260 273 280 291 272 223 223 207 204 210 206 204 208 207 211 216 217 220 218 213 210 210 210 210 206 204 204 201 201 200 196 198 205 206 208 208 210 212 210 208 208 207
267 261 268 274 278 268 227 227 217 210 208 208 207 207 210 214 216 217 219 220 216 216 220 216 214 211 207 206 206 203 208 210 208 207 205 209 210 210 213 212 211 211 213
260 254 255 266 267 263 228 224 212 204 207 209 210 211 214 215 217 217 217 216 221 219 221 225 230 224 216 209 209 209 211 206 207 208 207 206 208 212 212 211 211 213 214
250 243 254 255 260 257 229 221 208 202 208 212 214 214 212 215 213 217 219 217 218 221 222 228 227 228 224 222 215 209 208 208 206 210 209 212 210 211 211 211 211 211 212
252 245 252 259 255 258 230 220 214 203 211 214 216 218 216 215 218 221 220 217 218 220 218 219 222 225 228 230 229 228 227 216 211 206 210 209 212 209 204 209 211 211 210
Wind_Speed_850mb
68 62 55 58 56 52 53 52 46 63 33 50 71 67 66 64 59 49 51 55 48 59 52 49 45 44 37 43 47 45 47 45 43 40 38 38 34 34 35 35 32 30 29
71 66 62 62 60 55 54 58 74 66 67 33 32 44 49 60 59 49 52 53 48 50 45 41 37 38 49 51 52 50 48 46 44 39 43 40 36 34 32 30 29 28 30
72 63 68 66 68 61 62 67 65 62 58 69 54 53 51 50 52 48 46 52 50 45 38 40 52 52 50 50 52 50 45 43 42 42 38 38 35 32 31 30 30 31 31
73 69 71 70 66 65 67 63 64 65 67 74 73 74 63 58 57 53 47 44 48 44 45 54 51 51 55 52 48 46 44 42 41 40 38 36 33 32 34 36 36 36 34
83 74 75 73 68 73 72 72 74 69 79 76 83 64 60 63 61 61 69 58 49 48 53 53 49 48 49 48 45 46 44 40 41 40 37 36 37 39 41 41 39 38 37
85 83 78 80 77 79 81 81 75 80 83 84 79 80 63 66 66 59 55 65 61 57 54 54 57 50 52 49 45 44 42 40 39 38 39 41 43 42 40 39 37 34 31
91 82 93 89 83 91 84 86 80 87 89 92 92 80 68 66 64 61 62 66 65 66 64 66 63 58 52 49 44 41 43 43 40 41 42 42 40 38 36 34 32 29 26
86 103 93 92 92 92 89 93 95 97 97 108 102 90 67 73 72 69 69 69 71 73 76 73 67 63 57 50 47 44 46 42 42 41 42 41 38 35 31 28 24 18 11
87 87 100 106 103 101 99 97 106 109 104 103 99 105 60 48 85 81 82 78 74 68 79 72 67 61 56 59 55 48 41 40 39 38 38 36 33 30 24 16 15 19 19
90 84 94 94 115 113 108 111 113 116 119 112 87 77 73 73 88 53 80 82 81 79 74 71 68 64 58 63 57 56 52 44 40 31 30 28 26 26 26 27 24 23 21
85 78 101 101 96 121 121 117 114 125 122 117 93 82 73 56 75 67 62 73 93 86 78 73 72 67 66 67 62 58 54 50 41 46 38 31 30 32 32 29 27 23 20
76 87 79 91 100 120 106 112 114 122 121 121 113 97 83 82 91 81 65 77 86 85 82 75 75 73 71 72 67 60 53 53 52 46 38 32 30 30 30 30 28 27 27
64 61 63 80 103 96 116 106 111 121 122 115 124 113 95 86 89 94 84 85 80 85 85 85 81 78 78 77 70 64 61 57 58 47 40 36 34 34 34 33 33 33 29
71 66 60 68 101 110 99 117 115 119 127 122 126 124 116 92 83 99 102 101 69 83 80 80 83 82 79 77 71 68 67 60 55 52 46 44 42 42 40 39 37 32 31
71 77 58 83 52 103 120 114 124 125 127 135 126 128 112 101 97 86 91 109 106 61 76 76 75 82 76 74 72 67 64 62 60 55 52 52 49 45 43 42 37 39 37
79 67 72 71 89 82 120 138 118 127 130 125 138 123 116 109 102 92 84 106 105 85 82 82 90 90 85 76 67 66 65 62 62 59 57 51 47 45 45 44 45 42 38
72 63 62 65 58 54 122 119 134 126 133 127 130 129 123 109 114 103 98 97 100 89 75 79 93 90 86 78 70 71 67 67 65 59 55 50 51 50 51 49 47 43 41
67 71 63 63 64 81 72 125 125 124 126 132 127 134 124 122 112 114 118 104 91 84 84 93 101 97 95 82 77 73 73 66 62 60 55 55 55 55 52 51 47 44 43
57 72 68 69 58 73 60 124 118 121 126 127 132 136 128 125 118 114 113 114 99 86 82 89 86 89 95 85 84 76 72 66 64 61 60 58 56 55 54 50 48 47 46
40 56 71 73 61 63 84 103 123 127 127 128 125 136 124 138 132 116 110 112 105 95 92 86 79 82 88 90 86 88 79 75 72 69 66 63 61 59 55 53 51 50 51
71 54 69 75 71 64 91 95 133 135 130 128 138 138 132 138 136 124 111 112 111 103 100 92 83 89 94 96 98 93 89 84 75 74 74 70 69 66 64 60 57 58 56
108 88 82 95 85 68 84 85 131 136 132 135 139 142 139 136 126 115 115 114 117 118 105 107 99 98 96 95 102 99 98 90 83 83 80 76 72 70 67 64 65 62 59
89 102 97 97 98 75 89 86 124 133 136 135 137 142 136 126 119 109 107 111 114 121 120 103 108 106 102 96 98 105 101 98 99 96 90 84 81 76 70 67 68 66 65
73 69 72 92 85 74 78 93 138 131 128 134 133 132 133 135 121 114 111 111 113 115 121 118 97 97 101 105 101 95 96 106 100 85 94 94 90 83 77 74 72 70 69
61 51 63 82 75 73 74 103 138 131 127 127 133 128 134 146 134 132 119 117 114 114 99 107 105 88 94 97 100 102 94 98 98 94 90 95 91 88 87 81 78 75 72
56 63 68 68 68 62 66 108 123 132 130 121 126 118 136 136 127 129 129 116 112 108 109 112 109 100 93 96 96 92 97 102 110 87 102 99 93 98 79 88 84 82 80
Wind_Direction_850mb
237 235 232 228 232 229 224 212 189 182 154 162 171 179 182 188 183 184 184 184 190 175 178 184 193 200 206 178 159 160 160 161 168 161 153 141 139 131 124 125 125 120 116
235 231 229 229 229 230 228 215 216 227 240 238 234 202 191 192 188 178 180 177 181 175 175 176 187 171 163 161 162 161 162 156 157 148 140 140 137 137 136 130 124 117 113
234 228 232 229 231 224 223 222 223 231 235 218 210 194 189 186 190 188 182 182 176 178 181 181 166 161 160 164 166 168 165 161 155 156 152 150 148 141 134 129 125 120 114
237 227 232 228 230 220 217 220 208 195 188 179 186 188 190 188 192 197 195 185 185 178 175 169 165 165 162 169 166 161 159 155 157 158 156 151 145 138 133 129 125 121 116
242 232 232 226 221 212 205 206 192 190 187 188 190 181 193 188 187 198 198 197 191 181 173 168 172 170 168 165 161 159 158 158 157 159 157 151 144 136 131 127 124 119 114
246 237 226 227 219 212 207 207 207 202 195 189 185 188 197 193 190 193 192 196 204 196 179 177 173 173 171 167 170 162 157 158 159 158 155 148 141 136 133 130 126 120 115
246 230 233 225 220 216 210 208 201 197 196 186 177 173 184 195 195 193 193 203 202 186 179 176 170 174 176 176 170 163 157 156 155 155 153 149 145 141 139 133 127 122 117
247 245 236 229 225 219 209 209 202 195 191 192 180 173 171 183 195 198 198 196 192 185 180 180 178 183 179 174 165 163 155 156 155 157 158 153 151 149 145 138 130 128 146
252 246 235 234 229 225 214 210 204 197 190 193 192 179 169 187 186 194 198 198 199 189 179 177 179 182 184 170 166 167 161 159 159 161 164 163 160 156 157 171 171 154 163
293 253 239 233 220 232 217 207 205 201 198 194 193 189 182 183 174 179 187 187 187 186 182 181 183 186 188 179 176 182 179 182 173 178 181 178 181 181 181 181 184 182 185
279 314 234 227 232 219 221 207 207 202 204 199 194 186 189 186 184 183 184 184 184 183 190 187 190 192 196 191 190 188 194 188 194 190 185 196 193 189 193 198 200 203 216
277 282 239 230 227 218 215 208 209 207 205 205 193 187 191 187 185 184 184 184 177 181 184 190 192 193 197 199 200 200 199 207 207 201 205 214 216 214 214 217 217 214 217
296 286 292 239 225 227 215 215 208 205 204 198 196 190 198 198 201 196 190 187 180 176 183 191 195 197 200 206 207 206 204 208 208 213 221 228 231 227 221 221 216 216 217
302 275 283 301 220 214 226 208 210 209 202 200 202 204 201 197 201 201 200 194 181 181 187 190 196 200 204 208 210 213 217 219 221 223 224 229 228 224 218 216 217 215 202
305 288 275 257 310 225 210 207 208 205 200 201 200 199 202 204 198 195 201 204 198 184 191 195 201 205 209 211 214 216 220 221 224 223 223 224 223 219 213 212 204 195 192
293 291 284 271 256 225 206 207 200 200 197 197 202 206 207 208 200 200 195 202 206 199 200 206 208 209 209 213 214 219 220 218 219 216 218 216 214 212 208 197 194 194 195
283 283 295 286 253 295 206 200 202 201 203 199 202 200 209 217 208 208 211 216 208 204 200 203 213 211 213 215 213 217 216 214 212 210 209 208 208 203 197 197 198 195 199
274 286 290 301 264 252 251 210 198 206 205 198 203 205 208 214 213 204 209 213 213 211 207 207 213 214 216 212 215 213 212 209 207 204 203 204 200 197 201 201 201 204 209
282 277 283 292 274 242 281 204 212 210 208 206 205 206 204 208 215 215 214 215 215 213 213 216 214 208 207 205 204 207 208 206 205 203 200 198 201 202 204 207 210 210 204
279 275 276 286 286 261 239 209 203 208 211 208 211 208 205 202 214 215 215 216 214 212 211 215 218 207 203 200 200 200 198 202 200 199 199 201 202 204 206 210 212 209 203
257 267 279 284 287 270 229 216 205 203 210 205 207 207 208 205 215 218 216 214 211 211 212 212 212 204 197 196 198 200 202 197 197 203 201 204 204 205 207 208 207 207 205
254 260 273 280 291 272 223 223 207 204 210 206 204 208 207 211 216 217 220 218 213 210 210 210 210 206 204 204 201 201 200 196 198 205 206 208 208 210 212 210 208 208 207
267 261 268 274 278 268 227 227 217 210 208 208 207 207 210 214 216 217 219 220 216 216 220 216 214 211 207 206 206 203 208 210 208 207 205 209 210 210 213 212 211 211 213
260 254 255 266 267 263 228 224 212 204 207 209 210 211 214 215 217 217 217 216 221 219 221 225 230 224 216 209 209 209 211 206 207 208 207 206 208 212 212 211 211 213 214
250 243 254 255 260 257 229 221 208 202 208 212 214 214 212 215 213 217 219 217 218 221 222 228 227 228 224 222 215 209 208 208 206 210 209 212 210 211 211 211 211 211 212
252 245 252 259 255 258 230 220 214 203 211 214 216 218 216 215 218 221 220 217 218 220 218 219 222 225 228 230 229 228 227 216 211 206 210 209 212 209 204 209 211 211 210